Metlakatla, AK

3:17 PM AKST on February 25, 2017 (GMT -0900)
Annette Island

Weather History for PANT - January, 2012

Change the Weather History Date:

Thursday, January 19, 2012

  Actual Average Record
Temperature  
Mean Temperature 12 °F 37 °F  
Max Temperature 21 °F 42 °F 61 °F (1961)
Min Temperature 2 °F 32 °F 2 °F (2012)
Degree Days  
Heating Degree Days 53 28  
Month to date heating degree days 644 532  
Since 1 July heating degree days 3754 3443  
Cooling Degree Days 0    
Month to date cooling degree days 0  
Year to date cooling degree days 0  
Moisture  
Dew Point 5 °F    
Average Humidity 0    
Maximum Humidity 0    
Minimum Humidity 0    
Precipitation  
Precipitation 0.00 in 0.36 in 3.47 in (1988)
Month to date precipitation 7.06 6.70  
Year to date precipitation 7.06 6.70  
Snow  
Snow 0.00 in 0.20 in 8.00 in (1993)
Month to date snowfall 5.5 4.8  
Since 1 July snowfall 16.5  
Snow Depth 3.00 in    
Sea Level Pressure  
Sea Level Pressure 29.64 in    
Wind  
Wind Speed 4 mph (NE)    
Max Wind Speed 9 mph    
Max Gust Speed 15 mph    
Visibility 8 miles    
Events Snow    
T = Trace of Precipitation, MM = Missing Value Source: NWS Daily Summary

Daily Weather History Graph

Daily Weather History Graph

Search for Another Location

Airport or City:

Trip Planner

Search our weather history database for the weather conditions in past years. The results will help you decide how hot, cold, wet, or windy it might be!

Date:

Astronomy

Jan. 19, 2012 Rise Set
Actual Time 7:57 AM AKST 3:56 PM AKST
Civil Twilight 7:15 AM AKST 4:39 PM AKST
Nautical Twilight 6:29 AM AKST 5:24 PM AKST
Astronomical Twilight 5:46 AM AKST 6:07 PM AKST
Moon 4:54 AM AKST (1/19) 12:21 PM AKST (1/19)
Length of Visible Light 9h 23m
Length of Day
7h 58m
Waning Crescent, 14% of the Moon is Illuminated
Jan 19
Waning Crescent
Jan 22
New
Jan 30
First Quarter
Feb 7
Full
Feb 14
Last Quarter

Hourly Weather History & Observations

Time (AKST) Temp. Windchill Dew Point Humidity Pressure Visibility Wind Dir Wind Speed Gust Speed Precip Events Conditions
12:53 AM 3.9 °F - 1.0 °F 88% 29.90 in 10.0 mi Calm Calm - N/A   Clear
1:53 AM 3.9 °F - 1.0 °F 88% 29.89 in 10.0 mi Calm Calm - N/A   Clear
3:53 AM 3.9 °F -3.4 °F -0.0 °F 84% 29.86 in 10.0 mi NNW 3.5 mph - N/A   Clear
4:53 AM 5.0 °F - 1.0 °F 84% 29.84 in 10.0 mi Calm Calm - N/A   Clear
5:53 AM 10.9 °F 4.7 °F 1.9 °F 67% 29.81 in 10.0 mi North 3.5 mph - N/A   Clear
6:53 AM 12.9 °F 3.8 °F 1.0 °F 59% 29.79 in 10.0 mi North 5.8 mph - N/A   Clear
7:53 AM 10.9 °F 2.9 °F -0.0 °F 61% 29.78 in 10.0 mi NE 4.6 mph - N/A   Scattered Clouds
8:53 AM 12.0 °F - 1.9 °F 64% 29.76 in 10.0 mi Calm Calm - N/A   Scattered Clouds
9:53 AM 17.1 °F 8.7 °F -0.0 °F 47% 29.75 in 10.0 mi Variable 5.8 mph - N/A   Mostly Cloudy
10:53 AM 17.1 °F - -0.0 °F 47% 29.74 in 10.0 mi Calm Calm - N/A   Mostly Cloudy
11:53 AM 19.0 °F 13.9 °F -0.0 °F 43% 29.71 in 10.0 mi East 3.5 mph - N/A   Clear
12:53 PM 19.0 °F - -0.9 °F 42% 29.70 in 10.0 mi Calm Calm - N/A   Clear
1:53 PM 19.9 °F 12.1 °F -0.9 °F 40% 29.67 in 10.0 mi Variable 5.8 mph - N/A   Overcast
2:53 PM 19.9 °F 13.4 °F -0.9 °F 40% 29.65 in 10.0 mi Variable 4.6 mph - N/A   Overcast
3:53 PM 19.9 °F 10.1 °F -0.0 °F 42% 29.63 in 10.0 mi ENE 8.1 mph - N/A   Mostly Cloudy
4:53 PM 21.0 °F 16.2 °F 1.9 °F 44% 29.62 in 10.0 mi Variable 3.5 mph - N/A   Overcast
5:53 PM 21.0 °F 13.4 °F 1.9 °F 44% 29.60 in 10.0 mi Variable 5.8 mph - N/A   Overcast
6:53 PM 21.0 °F 11.4 °F 1.9 °F 44% 29.59 in 10.0 mi East 8.1 mph - N/A   Overcast
7:53 PM 21.0 °F 13.4 °F 5.0 °F 50% 29.58 in 10.0 mi East 5.8 mph - N/A   Overcast
8:53 PM 21.0 °F 13.4 °F 8.1 °F 57% 29.53 in 10.0 mi Variable 5.8 mph 16.1 mph 0.00 in Snow Light Snow
9:40 PM 21.2 °F 9.5 °F 10.4 °F 63% 29.50 in 7.0 mi ENE 11.5 mph 20.7 mph 0.00 in Snow Light Snow
9:53 PM 19.9 °F 7.9 °F 10.9 °F 68% 29.50 in 4.0 mi NE 11.5 mph 21.9 mph 0.00 in Snow Light Snow
10:08 PM 19.4 °F 6.0 °F 12.2 °F 74% 29.48 in 2.5 mi ENE 13.8 mph 23.0 mph 0.00 in Snow Light Snow
10:18 PM 19.4 °F 6.6 °F 14.0 °F 80% 29.47 in 1.5 mi ENE 12.7 mph 20.7 mph 0.00 in Snow Light Snow
10:35 PM 19.4 °F 5.5 °F 15.8 °F 86% 29.46 in 0.8 mi ENE 15.0 mph 26.5 mph 0.01 in Snow Light Snow
10:50 PM 19.4 °F 6.0 °F 15.8 °F 86% 29.44 in 1.0 mi ENE 13.8 mph 26.5 mph 0.02 in Snow Light Snow
10:53 PM 19.9 °F 5.7 °F 16.0 °F 85% 29.45 in 1.2 mi ENE 16.1 mph 27.6 mph 0.02 in Snow Light Snow
11:49 PM 21.2 °F 8.9 °F 17.6 °F 86% 29.40 in 1.8 mi NE 12.7 mph 26.5 mph 0.03 in Snow Light Snow
11:53 PM 21.0 °F 8.6 °F 18.0 °F 88% 29.41 in 2.0 mi ENE 12.7 mph 26.5 mph 0.03 in Snow Light Snow